Overview Statistics Trail Chart Weather Telemetry Raw packets
 

This is the latest recevied weather packets stored in our database for station/object 4S6DRJ-13. If no packets are shown the sender has not sent any weather packets the latest 10 day(s).

<< 435 436 437 438 439 440 441 >>
Time Temp. Humidity Pressure Rain* Wind** Luminosity Snow
1787797045 28.33° C 83% 1010.5 hPa 0 mm 1.79 m/s, 144° 171 W/m² -
1787796984 28.33° C 84% 1010.6 hPa 0 mm 0.45 m/s, 227° 154 W/m² -
1787796924 28.33° C 84% 1010.7 hPa 0 mm 0.45 m/s, 103° 216 W/m² -
1787796862 28.33° C 83% 1010.5 hPa 0 mm 0.89 m/s, 240° 160 W/m² -
1787796801 28.33° C 83% 1010.5 hPa 0 mm 0.45 m/s, 210° 247 W/m² -
1787796740 28.33° C 83% 1010.6 hPa 0 mm 0.89 m/s, 150° 167 W/m² -
1787796679 28.33° C 83% 1010.6 hPa 0 mm 0.45 m/s, 251° 138 W/m² -
1787796619 28.33° C 83% 1010.5 hPa 0 mm 1.79 m/s, 218° 127 W/m² -
1787796558 28.33° C 83% 1010.5 hPa 0 mm 1.79 m/s, 220° 119 W/m² -
1787796496 28.33° C 82% 1010.6 hPa 0 mm 1.79 m/s, 174° 112 W/m² -
1787796435 28.33° C 82% 1010.4 hPa 0 mm 1.34 m/s, 238° 100 W/m² -
1787796375 28.33° C 82% 1010.4 hPa 0 mm 1.34 m/s, 193° 95 W/m² -
1787796314 28.33° C 82% 1010.5 hPa 0 mm 0.89 m/s, 297° 160 W/m² -
1787796252 28.33° C 82% 1010.5 hPa 0 mm 2.68 m/s, 251° 199 W/m² -
1787796191 28.33° C 83% 1010.3 hPa 0 mm 1.79 m/s, 227° 195 W/m² -
1787796131 28.33° C 83% 1010.4 hPa 0 mm 2.24 m/s, 302° 213 W/m² -
1787796069 28.33° C 83% 1010.4 hPa 0 mm 0.89 m/s, 188° 228 W/m² -
1787796012 28.33° C 83% 1010.3 hPa 0 mm 1.79 m/s, 216° 213 W/m² -
1787795947 28.33° C 83% 1010.2 hPa 0 mm 1.34 m/s, 258° 198 W/m² -
1787795886 28.33° C 83% 1010.4 hPa 0 mm 0.45 m/s, 232° 209 W/m² -
1787795825 28.33° C 83% 1010.3 hPa 0 mm 0.45 m/s, 214° 179 W/m² -
1787795764 28.33° C 83% 1010.3 hPa 0 mm 0.89 m/s, 304° 175 W/m² -
1787795704 28.33° C 84% 1010.3 hPa 0 mm 0.89 m/s, 272° 198 W/m² -
1787795642 28.33° C 84% 1010.3 hPa 0 mm 0.89 m/s, 159° 194 W/m² -
1787795582 28.33° C 84% 1010.2 hPa 0 mm 1.34 m/s, 234° 188 W/m² -

* Rain latest hour (hover to see other rain measurements)
** Current wind speed in m/s (hover to see current wind gust speed)